Weather History for Boscobel, WI

Change the Weather History Date:

Monday, May 19, 2014

  Actual Average (KPDC) Record (KPDC)
Temperature  
Mean Temperature 59 °F -  
Max Temperature 64 °F 75 °F 93 °F (1975)
Min Temperature 54 °F 49 °F 32 °F (2002)
Degree Days  
Heating Degree Days 6    
Growing Degree Days 9 (Base 50)    
Moisture  
Dew Point 46 °F    
Average Humidity 62    
Maximum Humidity 81    
Minimum Humidity 46    
Precipitation  
Precipitation 0.08 in - - ()
Sea Level Pressure  
Sea Level Pressure 29.99 in    
Wind  
Wind Speed 7 mph (ESE)    
Max Wind Speed 15 mph    
Max Gust Speed 25 mph    
Visibility 10 miles    
Events Rain , Thunderstorm    
Averages and records for this station are not official NWS values.
T = Trace of Precipitation, MM = Missing Value Source: NWS Daily Summary

Daily Weather History Graph

Daily Weather History Graph

Search for Another Location

Airport:

Trip Planner

Search our weather history database for the weather conditions in past years. The results will help you decide how hot, cold, wet, or windy it might be!

Date:

Astronomy

May. 19, 2014 Rise Set
Actual Time 5:35 AM CDT 8:23 PM CDT
Civil Twilight 5:01 AM CDT 8:57 PM CDT
Nautical Twilight 4:19 AM CDT 9:39 PM CDT
Astronomical Twilight 3:31 AM CDT 10:28 PM CDT
Moon 12:09 AM CDT (5/19) 10:35 AM CDT (5/19)
Length of Visible Light 15h 55m
Length of Day
14h 48m
Waning Gibbous, 71% of the Moon is Illuminated
May 19
Waning Gibbous
May 21
Last Quarter
May 28
New
Jun 5
First Quarter
Jun 12
Full

Hourly Weather History & Observations

Time (CDT) Temp. Dew Point Humidity Pressure Visibility Wind Dir Wind Speed Gust Speed Precip Events Conditions
12:53 AM 59.0 °F 37.9 °F 46% 30.14 in 10.0 mi South 8.1 mph - N/A   Clear
1:53 AM 57.9 °F 37.9 °F 47% 30.15 in 10.0 mi Variable 6.9 mph - N/A   Clear
2:53 AM 57.0 °F 39.0 °F 51% 30.14 in 10.0 mi South 6.9 mph - N/A   Clear
3:53 AM 55.0 °F 39.0 °F 55% 30.14 in 10.0 mi SSE 6.9 mph - N/A   Partly Cloudy
4:53 AM 55.9 °F 39.9 °F 55% 30.14 in 10.0 mi Variable 4.6 mph - N/A   Partly Cloudy
5:53 AM 55.0 °F 41.0 °F 59% 30.13 in 10.0 mi Variable 5.8 mph - N/A   Overcast
6:53 AM 54.0 °F 46.0 °F 75% 30.13 in 9.0 mi Variable 4.6 mph - 0.00 in Rain Light Rain
8:53 AM 54.0 °F 46.0 °F 75% 30.11 in 10.0 mi Variable 4.6 mph - 0.00 in   Overcast
9:53 AM 55.9 °F 46.0 °F 69% 30.09 in 10.0 mi SE 8.1 mph - N/A   Overcast
10:53 AM 57.0 °F 45.0 °F 64% 30.07 in 10.0 mi SE 9.2 mph - N/A   Overcast
11:53 AM 57.9 °F 45.0 °F 62% 30.04 in 10.0 mi Variable 5.8 mph - N/A   Overcast
12:53 PM 60.1 °F 46.0 °F 60% 30.01 in 10.0 mi Variable 5.8 mph 18.4 mph N/A   Mostly Cloudy
1:53 PM 60.1 °F 48.0 °F 64% 29.96 in 10.0 mi SE 10.4 mph - 0.00 in Rain Light Rain
2:53 PM 64.0 °F 48.0 °F 56% 29.94 in 10.0 mi Variable 6.9 mph 25.3 mph 0.00 in   Overcast
3:53 PM 64.9 °F 46.9 °F 52% 29.88 in 10.0 mi ESE 15.0 mph 23.0 mph 0.00 in Rain Light Rain
4:05 PM 64.9 °F 46.9 °F 52% 29.90 in 10.0 mi Variable 3.5 mph - 0.00 in Thunderstorm Thunderstorm
4:51 PM 60.8 °F 48.2 °F 63% 29.89 in 8.0 mi Variable 3.5 mph - 0.06 in Rain , Thunderstorm Light Rain
4:53 PM 61.0 °F 48.9 °F 64% 29.89 in 9.0 mi Variable 4.6 mph - 0.06 in Rain , Thunderstorm Light Rain
5:07 PM 61.0 °F 48.9 °F 64% 29.87 in 10.0 mi ESE 6.9 mph - 0.00 in   Mostly Cloudy
5:53 PM 64.0 °F 50.0 °F 60% 29.87 in 10.0 mi Variable 3.5 mph - 0.00 in   Overcast
6:53 PM 63.0 °F 51.1 °F 65% 29.87 in 10.0 mi ENE 4.6 mph - N/A   Overcast
7:53 PM 61.0 °F 51.1 °F 70% 29.88 in 10.0 mi NE 5.8 mph - N/A   Overcast
8:53 PM 64.0 °F 48.9 °F 58% 29.89 in 10.0 mi East 6.9 mph - 0.00 in Rain Light Rain
9:53 PM 62.1 °F 50.0 °F 65% 29.88 in 10.0 mi East 5.8 mph - 0.01 in Rain Light Rain
10:53 PM 57.9 °F 52.0 °F 81% 29.88 in 7.0 mi NNE 4.6 mph - 0.01 in Rain Light Rain
11:53 PM 59.0 °F 52.0 °F 78% 29.85 in 10.0 mi Variable 3.5 mph - 0.00 in   Overcast